Location: Unspecified
(0.0000°N, 0.0000°E)
Time: 03:49:52
(UTC+00:00)

N. Korean satellite - Pass Details

Date: 27 January 2021
Orbit: 451 x 502 km, 97.2° (Epoch: 07 March)

Event Time Altitude Azimuth Distance (km) Brightness Sun altitude
Rises 05:35:32 0° 349° (N) 2,443 9.8 -8.8°
Reaches altitude 10° 05:37:51 10° 333° (NNW) 1,574 8.7 -8.3°
Maximum altitude 05:40:30 22° 281° (W) 1,041 7.6 -7.6°
Drops below altitude 10° 05:43:11 10° 229° (SW) 1,584 8.9 -7.0°
Sets 05:45:32 0° 213° (SSW) 2,464 10.0 -6.5°
